Regional Weather Roundup
Issued by NWS

Home | Current Version | Previous Version | Graphics & Text | Print | Product List | Glossary On
Versions: 1 2 3 4 5 6 7 8 9 10 11 12 13 14 15 16 17 18 19 20 21 22 23 24 25 26 27 28 29 30 31 32 33 34 35 36 37 38 39 40 41 42 43 44 45 46 47 48 49 50
628
ASUS43 KIND 181309
RWRIN

WEATHER ROUNDUP FOR INDIANA
NATIONAL WEATHER SERVICE INDIANAPOLIS IN
800 AM EST SUN FEB 18 2018

NOTE: "FAIR" INDICATES FEW OR NO CLOUDS BELOW 12,000 FEET WITH NO
SIGNIFICANT WEATHER AND/OR OBSTRUCTIONS TO VISIBILITY.

* - STATION DOES NOT REPORT WEATHER SUCH AS PRECIPITATION OR FOG.

+ - STATION NOT QUALITY CONTROLLED BY THE NATIONAL WEATHER SERVICE.
    USE DATA WITH CAUTION...ESPECIALLY DEWPOINT AND RELATIVE
    HUMIDITY OBSERVATIONS.

INZ001>003-010>013-019-020-181400-
NORTHWEST INDIANA

CITY           SKY/WX    TMP DP  RH WIND       PRES   REMARKS
GARY /AIRPORT/ CLEAR     18  16  93 SE3       30.27S FOG
KNOX *+          N/A     18  18 100 SE6       30.27F VSB 1/4 WCI   9
LA PORTE +     FOG      N/A N/A N/A CALM      30.28S VSB<1/4
MICHIGAN CITY+ FOG       19  19 100 CALM      30.29R VSB 1/2
MONTICELLO +   CLOUDY    26  24  91 SE3       30.30R
RENSSELAER +   FOG       18  14  86 SE5       30.29R VSB<1/4 WCI  11
VALPARAISO     FOG       13  10  88 SE3       30.28R VSB<1/4

$$

LMZ046-743>745-181400-
SOUTHERN LAKE MICHIGAN

STATION/POSITION TIME  TEMP    WIND        PRES    WAVE
                       AIR SEA DIR/SP/G            HT
                 (UTC) (F)     (DEG/KT/KT) (MB)    (FT)
BURNS HARBOR     1240   23     180/  5/  6 1025.4S
MICHIGAN CITY    1240   23     140/  7/  8   N/A

$$

INZ004-005-014>016-021>024-181400-
NORTH CENTRAL INDIANA

CITY           SKY/WX    TMP DP  RH WIND       PRES   REMARKS
GOSHEN         CLOUDY    27  22  81 CALM      30.28R HAZE
LOGANSPORT +   CLOUDY    27  23  86 SE8       30.32R WCI  18
PERU/GRISSOM   CLOUDY    27  27 100 S8        30.30R WCI  19
ROCHESTER +    CLOUDY    28  27  93 SE3       30.30R
SOUTH BEND     MOCLDY    21  20  96 S6        30.28R FOG     WCI  13
WARSAW +       CLOUDY    28  23  80 CALM      30.29R

$$

INZ006>009-017-018-025>027-181400-
NORTHEAST INDIANA

CITY           SKY/WX    TMP DP  RH WIND       PRES   REMARKS
AUBURN +       MOCLDY    27  23  86 CALM      30.30R
FORT WAYNE     CLOUDY    28  24  85 S5        30.32R WCI  23
HUNTINGTON +   CLOUDY    28  24  86 CALM      30.31S
KENDALLVILLE + CLOUDY    27  23  84 CALM      30.28R

$$

INZ028-029-035-036-043>045-051>053-181400-
WEST CENTRAL INDIANA

CITY           SKY/WX    TMP DP  RH WIND       PRES   REMARKS
CRAWFORDSVL +  CLOUDY    26  26 100 SE10      30.31R WCI  16
GREENCASTLE +  FAIR      25  23  93 SE6       30.32R FOG     WCI  18
LAFAYETTE      CLOUDY    25  24  96 SE5       30.31R WCI  19
TERRE HAUTE    FAIR      24  23  96 E5        30.32S FOG     WCI  18

$$

INZ030>032-037>040-046>048-054>057-064-065-181400-
CENTRAL INDIANA

CITY           SKY/WX    TMP DP  RH WIND       PRES   REMARKS
COLUMBUS       CLOUDY    30  27  86 SE5       30.35S WCI  25
FISHERS *+     CLOUDY    28  28 100 SE6       30.32S WCI  22
FRANKFORT +    CLOUDY    29  27  90 SE10      30.32R WCI  20
GREENWOOD *+   CLOUDY   N/A N/A N/A SE6       30.33S
INDIANAPOLIS   CLOUDY    29  26  89 SE8       30.32S WCI  21
-EAGLE CREEK   CLOUDY    30  25  81 SE5       30.31S WCI  25
KOKOMO +       CLOUDY    27  24  89 SE7       30.32R WCI  19
MARION +       CLOUDY    27  24  87 CALM      30.32S FOG
MT COMFORT *+  CLOUDY    28  28 100 SE6       30.32S WCI  22
SHELBYVILLE    CLOUDY    31  25  78 E5        30.33S WCI  26
ZIONSVILLE +   CLOUDY    28  26  93 SE8       30.31F WCI  19

$$

INZ033-034-041-042-049-050-058-059-181400-
EAST CENTRAL INDIANA

CITY           SKY/WX    TMP DP  RH WIND       PRES   REMARKS
MUNCIE         CLOUDY    29  24  82 S6        30.33R WCI  23
RICHMOND +     CLOUDY    28  27  93 E5        30.33S WCI  23

$$

INZ060-061-067>069-081>083-085>088-181400-
SOUTHWEST INDIANA

CITY           SKY/WX    TMP DP  RH WIND       PRES   REMARKS
EVANSVILLE     FOG       27  27 100 CALM      30.34S VSB 1/4
HUNTINGBURG +  FOG       25  24  96 CALM      30.34S VSB<1/4
WASHINGTON +   FAIR      30  28  94 CALM      30.34R FOG

$$

INZ062-063-066-070>080-084-089>092-181400-
SOUTH CENTRAL AND SOUTHEAST INDIANA

CITY           SKY/WX    TMP DP  RH WIND       PRES   REMARKS
BATESVILLE +   CLOUDY    30  28  93 MISG      30.33S
BEDFORD +      FAIR      25  25 100 SE3       30.33S FOG
BLOOMINGTON    FAIR      24  22  91 CALM      30.32S FOG
FRENCH LICK *+   N/A     28 N/A N/A CALM      30.34R
MADISON *+     FAIR      28  28 100 SE3       30.36S
NORTH VERNON + MOCLDY    27  27 100 CALM      30.34S FOG
SEYMOUR +      FAIR      28  27  93 CALM      30.35R FOG

$$





USA.gov is the U.S. government's official web portal to all federal, state and local government web resources and services.